Weather History for KGRI - July, 2013

Change the Weather History Date:

Saturday, July 20, 2013

  Actual Average Record
Temperature  
Mean Temperature 77 °F 76 °F  
Max Temperature 87 °F 88 °F 111 °F (1934)
Min Temperature 67 °F 65 °F 49 °F (1900)
Degree Days  
Heating Degree Days 0 0  
Month to date heating degree days 0 0  
Since 1 June heating degree days 21 24  
Since 1 July heating degree days 0 0  
Cooling Degree Days 12 12  
Month to date cooling degree days 281 229  
Year to date cooling degree days 635 507  
Since 1 June cooling degree days 540 442  
Growing Degree Days 26 (Base 50)    
Moisture  
Dew Point 64 °F    
Average Humidity 68    
Maximum Humidity 87    
Minimum Humidity 48    
Precipitation  
Precipitation 0.00 in 0.11 in 1.32 in (2010)
Month to date precipitation 0.38 2.25  
Year to date precipitation 15.38 16.50  
Snow  
Snow 0.00 in 0.00 in - ()
Month to date snowfall 0.0 0.0  
Since 1 June snowfall 0.0 0.0  
Since 1 July snowfall 0.0 0.0  
Snow Depth 0.00 in    
Sea Level Pressure  
Sea Level Pressure 29.93 in    
Wind  
Wind Speed 8 mph (SE)    
Max Wind Speed 21 mph    
Max Gust Speed 28 mph    
Visibility 10 miles    
Events      
T = Trace of Precipitation, MM = Missing Value Source: NWS Daily Summary

Daily Weather History Graph

Daily Weather History Graph

Search for Another Location

Airport or City:

Trip Planner

Search our weather history database for the weather conditions in past years. The results will help you decide how hot, cold, wet, or windy it might be!

Date:

Astronomy

Jul. 20, 2013 Rise Set
Actual Time 6:18 AM CDT 9:00 PM CDT
Civil Twilight 5:46 AM CDT 9:32 PM CDT
Nautical Twilight 5:06 AM CDT 10:12 PM CDT
Astronomical Twilight 4:20 AM CDT 10:57 PM CDT
Moon 7:05 PM CDT (7/20) 4:00 AM CDT (7/20)
Length of Visible Light 15h 45m
Length of Day
14h 41m
Waxing Gibbous, 94% of the Moon is Illuminated
Jul 20
Waxing Gibbous
Jul 22
Full
Jul 29
Last Quarter
Aug 6
New
Aug 14
First Quarter

Hourly Weather History & Observations

Time (CDT) Temp. Heat Index Dew Point Humidity Pressure Visibility Wind Dir Wind Speed Gust Speed Precip Events Conditions
12:53 AM 75.0 °F - 66.9 °F 76% 29.95 in 10.0 mi SSE 3.5 mph - N/A   Clear
1:53 AM 73.9 °F - 64.9 °F 73% 29.96 in 10.0 mi SE 4.6 mph - N/A   Clear
2:53 AM 72.0 °F - 66.0 °F 81% 29.94 in 10.0 mi SE 4.6 mph - N/A   Clear
3:53 AM 70.0 °F - 64.9 °F 84% 29.93 in 10.0 mi Calm Calm - N/A   Clear
4:53 AM 70.0 °F - 63.0 °F 78% 29.92 in 10.0 mi SSW 3.5 mph - N/A   Clear
5:53 AM 69.1 °F - 64.0 °F 84% 29.92 in 10.0 mi SSE 3.5 mph - N/A   Clear
6:53 AM 68.0 °F - 64.0 °F 87% 29.93 in 10.0 mi Calm Calm - N/A   Clear
7:53 AM 71.1 °F - 64.0 °F 78% 29.93 in 10.0 mi SE 3.5 mph - N/A   Clear
8:53 AM 77.0 °F - 62.1 °F 60% 29.93 in 10.0 mi SE 5.8 mph - N/A   Clear
9:42 AM 75.2 °F - 64.4 °F 69% 30.01 in 10.0 mi NNE 12.7 mph - N/A   Clear
9:53 AM 75.0 °F - 64.0 °F 69% 29.97 in 10.0 mi NE 16.1 mph - N/A   Scattered Clouds
10:53 AM 75.0 °F - 62.1 °F 64% 29.98 in 10.0 mi NE 15.0 mph - N/A   Scattered Clouds
11:53 AM 78.1 °F - 62.1 °F 58% 29.98 in 10.0 mi NE 19.6 mph - N/A   Mostly Cloudy
12:53 PM 82.0 °F 83.1 °F 63.0 °F 52% 29.95 in 10.0 mi East 13.8 mph - N/A   Mostly Cloudy
1:53 PM 82.0 °F 83.4 °F 64.0 °F 54% 29.95 in 10.0 mi ESE 15.0 mph 20.7 mph N/A   Mostly Cloudy
2:53 PM 84.0 °F 85.4 °F 64.0 °F 51% 29.92 in 10.0 mi ESE 16.1 mph 21.9 mph N/A   Clear
3:53 PM 84.9 °F 85.9 °F 63.0 °F 48% 29.91 in 10.0 mi ESE 11.5 mph 18.4 mph N/A   Clear
4:53 PM 86.0 °F 87.6 °F 64.9 °F 49% 29.88 in 10.0 mi SE 13.8 mph - N/A   Clear
5:53 PM 84.0 °F 85.8 °F 64.9 °F 53% 29.86 in 10.0 mi SE 13.8 mph - N/A   Clear
6:53 PM 82.9 °F 85.4 °F 66.9 °F 58% 29.86 in 10.0 mi SSE 11.5 mph - N/A   Mostly Cloudy
7:53 PM 80.1 °F 82.1 °F 66.0 °F 62% 29.86 in 10.0 mi SSE 10.4 mph - N/A   Clear
8:53 PM 75.9 °F - 63.0 °F 64% 29.88 in 10.0 mi SSE 3.5 mph - N/A   Clear
9:53 PM 73.9 °F - 64.9 °F 73% 29.91 in 10.0 mi Calm Calm - N/A   Clear
10:53 PM 72.0 °F - 66.9 °F 84% 29.91 in 10.0 mi Calm Calm - N/A   Partly Cloudy
11:53 PM 72.0 °F - 64.9 °F 78% 29.92 in 10.0 mi SE 3.5 mph - N/A   Clear